This is the latest recevied weather packets stored in our database for station/object KC5TIL-3. If no packets are shown the sender has not sent any weather packets the latest 10 day(s).
| Time | Temp. | Humidity | Pressure | Rain* | Wind** | Luminosity | Snow |
|---|---|---|---|---|---|---|---|
| 1788099038 | 29.44° C | 29% | 1013.8 hPa | 0 mm | 2.68 m/s, 245° | - | - |
| 1788098740 | 29.44° C | 31% | 1013.8 hPa | 0 mm | 2.68 m/s, 168° | - | - |
| 1788098442 | 28.89° C | 32% | 1013.8 hPa | 0 mm | 3.13 m/s, 197° | - | - |
| 1788098140 | 28.33° C | 34% | 1013.8 hPa | 0 mm | 2.24 m/s, 219° | - | - |
| 1788097842 | 28.33° C | 35% | 1013.8 hPa | 0 mm | 3.13 m/s, 207° | - | - |
| 1788097544 | 27.78° C | 36% | 1013.8 hPa | 0 mm | 3.13 m/s, 181° | - | - |
| 1788097238 | 27.78° C | 37% | 1013.8 hPa | 0 mm | 2.68 m/s, 168° | - | - |
| 1788096939 | 27.78° C | 38% | 1013.8 hPa | 0 mm | 1.79 m/s, 185° | - | - |
| 1788096641 | 27.78° C | 39% | 1013.8 hPa | 0 mm | 2.68 m/s, 179° | - | - |
| 1788096340 | 27.22° C | 40% | 1013.8 hPa | 0 mm | 2.68 m/s, 243° | - | - |
| 1788096042 | 27.22° C | 41% | 1013.8 hPa | 0 mm | 2.68 m/s, 177° | - | - |
| 1788095744 | 27.22° C | 41% | 1013.8 hPa | 0 mm | 2.68 m/s, 201° | - | - |
| 1788095442 | 27.22° C | 41% | 1013.8 hPa | 0 mm | 2.68 m/s, 123° | - | - |
| 1788095185 | 27.22° C | 42% | 1013.8 hPa | 0 mm | 2.68 m/s, 201° | - | - |
| 1788095144 | 27.22° C | 42% | 1013.8 hPa | 0 mm | 2.68 m/s, 201° | - | - |
| 1788094846 | 26.67° C | 43% | 1013.8 hPa | 0 mm | 2.24 m/s, 222° | - | - |
| 1788094545 | 26.67° C | 43% | 1013.8 hPa | 0 mm | 2.68 m/s, 209° | - | - |
| 1788094246 | 26.67° C | 43% | 1013.8 hPa | 0 mm | 2.24 m/s, 188° | - | - |
| 1788093948 | 26.67° C | 44% | 1013.8 hPa | 0 mm | 3.13 m/s, 188° | - | - |
| 1788093647 | 26.11° C | 44% | 1013.8 hPa | 0 mm | 3.13 m/s, 186° | - | - |
| 1788093349 | 26.11° C | 44% | 1013.8 hPa | 0 mm | 2.68 m/s, 224° | - | - |
| 1788093051 | 26.11° C | 44% | 1013.8 hPa | 0 mm | 3.13 m/s, 240° | - | - |
| 1788092749 | 26.67° C | 43% | 1013.8 hPa | 0 mm | 2.24 m/s, 217° | - | - |
| 1788092451 | 26.67° C | 43% | 1013.8 hPa | 0 mm | 2.24 m/s, 215° | - | - |
| 1788092153 | 26.67° C | 43% | 1012.8 hPa | 0 mm | 3.13 m/s, 208° | - | - |
* Rain latest hour (hover to see other rain measurements)
** Current wind speed in m/s (hover to see current wind gust speed)